CAPE
0 0 0 0 0 0 0 0 0 0 0 0 0 0 0 0 0 0 1 3 2 2 1 1 0 0 0 0 0 0 0 0 0 0 0 0 0 0 0 0 0 0 1
0 0 0 0 0 0 0 0 0 0 0 0 0 0 0 0 0 0 0 2 2 1 1 0 0 0 0 0 0 0 0 0 0 0 0 0 0 0 0 0 0 0 0
0 0 0 0 0 0 0 0 0 0 0 0 0 0 0 0 0 0 0 0 0 0 0 0 0 0 0 0 0 0 0 0 0 0 0 0 0 0 0 0 0 0 0
0 0 0 0 0 0 0 0 0 0 0 0 0 0 0 0 0 0 0 0 0 0 0 0 0 0 0 0 0 0 0 0 0 0 0 0 0 0 0 0 0 0 0
0 0 0 0 0 0 0 0 0 0 0 0 0 0 0 0 0 0 0 0 0 0 0 0 0 0 0 0 0 0 0 0 0 0 0 0 0 0 0 0 0 0 0
0 0 0 0 0 0 0 0 0 0 0 0 0 0 0 0 0 0 0 0 0 0 0 0 0 0 0 0 0 0 0 0 0 0 0 0 0 0 0 0 0 0 0
0 0 0 0 0 0 0 0 0 0 0 0 0 0 0 0 0 0 0 0 0 0 0 0 0 0 0 0 0 0 0 0 0 0 0 0 0 0 0 0 0 0 0
0 0 0 0 0 0 0 0 0 0 0 0 0 0 0 0 0 0 0 0 0 0 0 0 0 0 0 0 0 0 0 0 0 0 0 0 0 0 0 0 0 0 0
0 0 0 0 0 0 0 0 0 0 0 0 0 0 0 0 0 0 0 0 0 0 0 0 0 0 0 0 0 0 0 0 0 0 0 0 0 0 0 0 0 0 0
0 0 0 0 0 0 0 0 0 0 0 0 0 0 0 0 0 0 0 0 0 0 0 0 0 0 0 0 0 0 0 0 0 0 0 0 0 0 0 0 0 0 0
0 0 0 0 0 0 0 0 0 0 0 0 0 0 0 0 0 0 0 0 0 0 0 0 0 0 0 0 0 0 0 0 0 0 0 0 0 0 0 0 0 0 0
0 0 0 0 0 0 0 0 0 0 0 0 0 0 0 0 0 0 0 0 0 0 0 0 0 0 0 0 0 0 0 0 0 0 0 0 0 0 0 0 0 1 1
0 0 0 0 0 0 0 0 0 0 0 0 0 0 0 0 0 0 0 0 0 0 0 0 0 0 0 0 0 0 0 0 0 0 0 0 0 0 0 0 0 0 0
0 0 0 0 0 0 0 0 0 0 0 0 0 0 0 0 0 0 0 0 0 0 0 0 0 0 0 0 0 0 0 0 0 0 0 0 0 0 0 0 0 1 2
0 0 0 0 0 0 0 0 0 0 0 0 0 0 0 0 0 0 0 0 0 0 0 0 0 0 0 0 0 0 0 0 0 0 0 0 0 0 0 0 0 0 10
0 0 0 0 0 0 0 0 0 0 0 0 0 0 0 0 0 0 0 0 0 0 0 0 0 0 0 0 0 0 0 0 0 0 0 0 0 0 0 0 1 8 9
0 0 0 0 0 0 0 0 0 0 0 0 0 0 0 0 0 0 0 0 0 0 0 0 0 0 0 0 0 0 0 0 0 0 0 0 0 0 0 1 12 14 15
0 0 0 0 0 0 0 0 0 0 0 0 0 0 0 0 0 0 0 0 0 0 0 0 0 0 0 0 0 0 0 0 0 0 0 0 0 0 0 9 17 18 17
0 0 0 0 0 0 0 0 0 0 0 0 0 0 0 0 0 0 0 0 0 0 0 0 0 0 0 0 0 0 0 0 0 0 0 0 0 0 0 0 2 0 0
0 0 0 0 0 0 0 0 0 0 0 0 0 0 0 0 0 0 0 0 0 0 0 0 0 0 0 0 0 0 0 0 0 0 0 0 0 0 0 0 0 0 0
0 0 0 0 0 0 0 0 0 0 0 0 0 0 0 0 0 0 0 0 0 0 0 0 0 0 0 0 0 0 0 0 0 0 0 0 0 0 0 0 0 0 0
0 0 0 0 0 0 0 0 0 0 0 0 0 0 0 0 0 0 0 0 0 0 0 0 0 0 0 0 0 0 0 0 0 0 0 0 0 0 0 0 0 1 0
0 0 0 0 0 0 0 0 0 0 0 0 0 0 0 0 0 0 0 0 0 0 0 0 0 0 0 0 0 0 0 0 2 3 0 1 0 0 0 0 0 0 2
0 0 0 0 0 0 0 0 0 0 0 0 0 0 0 0 0 0 0 0 0 0 0 0 0 0 0 0 0 0 1 0 0 0 0 2 0 0 0 0 0 0 0
0 0 0 0 0 0 0 0 0 0 0 0 0 0 0 0 0 0 0 0 0 0 0 0 0 0 0 0 0 0 0 0 0 0 0 5 1 0 0 0 0 0 0
0 0 0 0 0 0 1 0 0 0 0 0 0 0 0 0 4 19 1 1 0 0 0 0 0 0 0 0 0 0 0 0 0 0 4 0 0 0 1 0 0 0 0
CIN
-0 -0 -0 -0 -0 -0 -0 -0 -0 -0 -0 -0 -0 -0 -0 -0 -0 -0 -3 -0 -0 -1 -0 -1 -0 -0 -0 -0 -0 -0 -0 -0 -0 -0 -0 -0 -0 -0 -0 -0 -0 -0 -0
-0 -0 -0 -0 -0 -0 -0 -0 -0 -0 -0 -0 -0 -0 -0 -0 -0 -0 -0 -1 -0 -0 -1 -0 -0 -0 -0 -0 -0 -0 -0 -0 -0 -0 -0 -0 -0 -0 -0 -0 -0 -0 -0
-0 -0 -0 -0 -0 -0 -0 -0 -0 -0 -0 -0 -0 -0 -0 -0 -0 -0 -0 -0 -0 -0 -0 -0 -0 -0 -0 -0 -0 -0 -0 -0 -0 -0 -0 -0 -0 -0 -0 -0 -0 -0 -0
-0 -0 -0 -0 -0 -0 -0 -0 -0 -0 -0 -0 -0 -0 -0 -0 -0 -0 -0 -0 -0 -0 -0 -0 -0 -0 -0 -0 -0 -0 -0 -0 -0 -0 -0 -0 -0 -0 -0 -0 -0 -0 -0
-0 -0 -0 -0 -0 -0 -0 -0 -0 -0 -0 -0 -0 -0 -0 -0 -0 -0 -0 -0 -0 -0 -0 -0 -0 -0 -0 -0 -0 -0 -0 -0 -0 -0 -0 -0 -0 -0 -0 -0 -0 -0 -0
-0 -0 -0 -0 -0 -0 -0 -0 -0 -0 -0 -0 -0 -0 -0 -0 -0 -0 -0 -0 -0 -0 -0 -0 -0 -0 -0 -0 -0 -0 -0 -0 -0 -0 -0 -0 -0 -0 -0 -0 -0 -0 -0
-0 -0 -0 -0 -0 -0 -0 -0 -0 -0 -0 -0 -0 -0 -0 -0 -0 -0 -0 -0 -0 -0 -0 -0 -0 -0 -0 -0 -0 -0 -0 -0 -0 -0 -0 -0 -0 -0 -0 -0 -0 -0 -0
-0 -0 -0 -0 -0 -0 -0 -0 -0 -0 -0 -0 -0 -0 -0 -0 -0 -0 -0 -0 -0 -0 -0 -0 -0 -0 -0 -0 -0 -0 -0 -0 -0 -0 -0 -0 -0 -0 -0 -0 -0 -0 -0
-0 -0 -0 -0 -0 -0 -0 -0 -0 -0 -0 -0 -0 -0 -0 -0 -0 -0 -0 -0 -0 -0 -0 -0 -0 -0 -0 -0 -0 -0 -0 -0 -0 -0 -0 -0 -0 -0 -0 -0 -0 -0 -0
-0 -0 -0 -0 -0 -0 -0 -0 -0 -0 -0 -0 -0 -0 -0 -0 -0 -0 -0 -0 -0 -0 -0 -0 -0 -0 -0 -0 -0 -0 -0 -0 -0 -0 -0 -0 -0 -0 -0 -0 -0 -0 -0
-0 -0 -0 -0 -0 -0 -0 -0 -0 -0 -0 -0 -0 -0 -0 -0 -0 -0 -0 -0 -0 -0 -0 -0 -0 -0 -0 -0 -0 -0 -0 -0 -0 -0 -0 -0 -0 -0 -0 -0 -0 -0 -0
-0 -0 -0 -0 -0 -0 -0 -0 -0 -0 -0 -0 -0 -0 -0 -0 -0 -0 -0 -0 -0 -0 -0 -0 -0 -0 -0 -0 -0 -0 -0 -0 -0 -0 -0 -0 -0 -0 -0 -0 -0 -0 -1
-0 -0 -0 -0 -0 -0 -0 -0 -0 -0 -0 -0 -0 -0 -0 -0 -0 -0 -0 -0 -0 -0 -0 -0 -0 -0 -0 -0 -0 -0 -0 -0 -0 -0 -0 -0 -0 -0 -0 -0 -0 -0 -0
-0 -0 -0 -0 -0 -0 -0 -0 -0 -0 -0 -0 -0 -0 -0 -0 -0 -0 -0 -0 -0 -0 -0 -0 -0 -0 -0 -0 -0 -0 -0 -0 -0 -0 -0 -0 -0 -0 -0 -0 -0 -1 -0
-0 -0 -0 -0 -0 -0 -0 -0 -0 -0 -0 -0 -0 -0 -0 -0 -0 -0 -0 -0 -0 -0 -0 -0 -0 -0 -0 -0 -0 -0 -0 -0 -0 -0 -0 -0 -0 -0 -0 -0 -0 -0 -1
-0 -0 -0 -0 -0 -0 -0 -0 -0 -0 -0 -0 -0 -0 -0 -0 -0 -0 -0 -0 -0 -0 -0 -0 -0 -0 -0 -0 -0 -0 -0 -0 -0 -0 -0 -0 -0 -0 -0 -0 -1 -0 -1
-0 -0 -0 -0 -0 -0 -0 -0 -0 -0 -0 -0 -0 -0 -0 -0 -0 -0 -0 -0 -0 -0 -0 -0 -0 -0 -0 -0 -0 -0 -0 -0 -0 -0 -0 -0 -0 -0 -0 -0 -1 -1 -0
-0 -0 -0 -0 -0 -0 -0 -0 -0 -0 -0 -0 -0 -0 -0 -0 -0 -0 -0 -0 -0 -0 -0 -0 -0 -0 -0 -0 -0 -0 -0 -0 -0 -0 -0 -0 -0 -0 -0 -0 -0 -1 -0
-0 -0 -0 -0 -0 -0 -0 -0 -0 -0 -0 -0 -0 -0 -0 -0 -0 -0 -0 -0 -0 -0 -0 -0 -0 -0 -0 -0 -0 -0 -0 -0 -0 -0 -0 -0 -0 -0 -0 -0 -0 -0 -0
-0 -0 -0 -0 -0 -0 -0 -0 -0 -0 -0 -0 -0 -0 -0 -0 -0 -0 -0 -0 -0 -0 -0 -0 -0 -0 -0 -0 -0 -0 -0 -0 -0 -0 -0 -0 -0 -0 -0 -0 -0 -0 -0
-0 -0 -0 -0 -0 -0 -0 -0 -0 -0 -0 -0 -0 -0 -0 -0 -0 -0 -0 -0 -0 -0 -0 -0 -0 -0 -0 -0 -0 -0 -0 -0 -0 -0 -0 -0 -0 -0 -0 -0 -0 -0 -0
-0 -0 -0 -0 -0 -0 -0 -0 -0 -0 -0 -0 -0 -0 -0 -0 -0 -0 -0 -0 -0 -0 -0 -0 -0 -0 -0 -0 -0 -0 -0 -0 -0 -0 -0 -0 -0 -0 -0 -0 -0 -0 -0
-0 -0 -0 -0 -0 -0 -0 -0 -0 -0 -0 -0 -0 -0 -0 -0 -0 -0 -0 -0 -0 -0 -0 -0 -0 -0 -0 -0 -0 -0 -0 -0 -0 -4 -0 -0 -0 -0 -0 -0 -0 -0 -0
-0 -0 -0 -0 -0 -0 -0 -0 -0 -0 -0 -0 -0 -0 -0 -0 -0 -0 -0 -0 -0 -0 -0 -0 -0 -0 -0 -3 -0 -0 -0 -0 -0 -0 -0 -0 -1 -2 -1 -0 -0 -0 -0
-0 -0 -0 -0 -0 -0 -0 -0 -0 -0 -0 -0 -0 -0 -0 -0 -0 -0 -0 -0 -0 -0 -0 -0 -0 -0 -0 -0 -0 -0 -0 -0 -0 -0 -0 -1 -0 -5 -0 -0 -0 -0 -0
-0 -0 -0 -0 -0 -0 -0 -0 -0 -0 -0 -0 -0 -0 -0 -0 -0 -0 -6 -7 -0 -0 -0 -0 -0 -0 -0 -0 -0 -0 -0 -0 -0 -0 -2 -0 -0 -0 -4 -0 -0 -0 -0
Wind_Speed
8 6 4 3 1 2 4 6 8 10 11 12 13 14 15 16 17 17 18 19 20 20 21 22 22 22 23 24 24 25 25 25 26 26 26 27 26 26 26 26 25 25 24
10 8 5 3 3 3 5 6 7 9 10 11 12 13 14 15 16 16 16 17 18 19 19 20 20 21 22 22 23 23 24 24 25 25 26 26 26 26 26 26 26 25 25
11 9 7 5 5 4 4 5 5 7 9 9 11 12 12 13 14 15 15 16 16 17 17 18 18 19 20 21 21 22 23 23 24 24 25 26 26 26 26 26 26 26 26
12 10 8 7 6 4 4 5 6 6 8 9 10 10 11 12 12 13 14 14 15 15 16 16 17 17 18 19 20 21 22 22 23 24 24 25 25 26 26 27 27 26 26
12 10 9 9 6 5 4 7 5 6 7 7 8 8 9 9 10 11 12 13 13 14 15 15 16 16 17 18 19 20 21 22 23 23 24 25 26 26 27 27 27 27 27
14 11 11 10 7 5 5 4 6 1 3 5 5 7 8 9 9 10 11 12 12 13 13 14 15 15 16 17 18 19 20 21 22 23 24 25 26 27 27 28 28 28 28
14 12 14 11 10 8 6 6 4 4 1 1 4 7 9 11 11 11 11 12 12 13 13 13 13 14 14 15 17 18 20 21 22 23 24 25 26 27 28 29 29 29 30
17 14 12 9 10 8 7 7 7 5 6 2 6 7 10 12 12 12 12 12 12 13 13 13 14 14 15 16 16 18 20 21 22 23 24 25 26 28 29 30 30 31 31
20 16 15 14 9 9 8 8 7 6 5 7 5 11 14 16 12 14 13 13 13 13 14 14 15 16 16 16 18 18 19 21 22 24 25 26 28 29 31 31 32 33 33
19 18 16 16 13 9 9 9 8 8 6 7 10 15 15 13 15 17 17 16 14 15 15 16 16 17 17 16 17 19 20 21 22 23 25 27 28 30 31 32 33 34 35
18 18 20 17 15 13 11 10 9 9 10 10 11 13 14 15 16 18 21 19 17 17 18 20 20 20 19 19 19 20 22 22 22 23 25 27 30 32 33 34 36 37 38
12 18 19 17 15 14 10 10 10 11 12 11 11 13 13 16 17 20 20 17 17 18 19 23 23 21 20 19 19 20 22 21 22 23 26 27 29 32 34 36 37 39 40
14 17 18 15 18 15 9 9 10 10 12 12 10 11 12 15 16 20 21 21 21 22 24 23 23 20 18 17 19 21 23 22 21 24 26 29 31 33 35 36 38 40 40
8 1 7 11 10 9 9 9 9 10 9 8 9 11 12 15 18 21 22 22 29 29 27 21 19 17 17 19 20 22 22 24 25 26 29 30 31 32 35 37 39 39 38
3 3 5 5 9 8 7 5 5 8 9 10 11 14 17 20 21 22 21 22 26 28 23 17 18 18 21 22 24 24 26 27 27 27 27 29 31 33 35 37 40 36 34
5 4 2 5 5 7 7 8 9 11 13 16 16 17 20 21 22 19 18 17 17 16 18 18 20 22 24 24 26 26 27 28 28 29 30 29 31 33 34 35 37 34 34
6 7 5 9 11 12 13 14 15 15 16 18 18 17 19 17 16 14 13 13 15 16 20 22 22 23 25 26 28 28 28 28 28 29 29 31 33 35 36 37 34 33 34
6 7 6 8 10 12 13 15 15 15 15 15 16 16 13 12 13 14 14 16 17 20 21 23 23 24 25 26 27 28 29 29 30 31 31 31 32 33 34 34 32 34 35
8 9 8 9 10 11 12 13 13 13 13 13 13 12 12 12 13 14 15 17 17 18 20 22 25 24 25 26 28 28 28 30 30 30 30 30 31 32 33 33 33 34 34
9 9 9 10 10 11 12 12 13 13 13 13 13 12 12 12 13 14 16 17 18 20 21 22 23 25 25 25 27 29 31 29 31 30 28 28 28 29 31 32 32 32 32
12 12 11 12 12 13 13 12 13 13 13 14 13 14 14 13 14 15 17 18 19 21 22 22 23 24 26 28 30 28 29 30 30 26 27 28 31 31 31 31 29 30 28
12 13 13 13 14 14 14 14 14 13 14 15 14 15 15 16 16 17 18 17 18 19 21 22 23 25 25 26 26 28 29 33 32 25 30 33 31 31 31 29 27 29 29
14 14 15 15 15 16 16 16 16 15 15 15 15 16 17 18 18 18 17 17 18 20 21 20 22 23 24 25 26 28 27 28 30 28 32 33 29 28 27 25 26 27 29
15 15 15 14 15 17 17 17 16 16 15 16 16 16 18 18 18 18 18 18 19 19 21 21 20 21 22 24 24 26 27 28 29 29 27 32 30 28 27 25 25 23 29
14 14 14 15 16 18 18 17 15 16 16 17 18 18 18 20 20 19 17 18 17 19 20 21 22 23 25 26 27 26 28 30 31 30 26 27 28 29 26 25 24 24 26
14 14 15 16 16 17 17 17 16 16 17 18 18 19 19 19 19 20 17 16 19 20 22 23 25 25 25 25 25 25 25 28 29 29 24 32 30 29 26 23 23 25 27
Wind_Direction
223 234 249 255 200 101 88 75 65 60 61 62 61 63 60 57 53 49 49 51 51 49 47 45 43 39 36 35 32 31 28 26 25 25 24 23 19 17 15 14 12 10 7
221 235 237 219 163 126 109 92 79 68 63 64 63 59 57 54 51 48 44 46 47 47 46 43 40 37 35 32 28 26 26 23 22 21 20 18 16 15 13 11 9 6 2
223 232 232 203 171 168 122 99 80 73 68 60 62 58 55 51 47 43 41 37 37 40 40 37 35 33 30 27 24 21 20 19 16 15 16 14 13 11 9 8 5 3 0
226 231 226 198 190 173 133 122 110 89 79 73 66 55 53 47 43 40 36 34 30 30 29 32 30 28 24 22 19 16 13 12 10 9 8 7 6 4 4 2 360 358 355
225 233 219 199 201 193 158 134 126 108 93 71 57 42 29 28 24 25 26 23 21 20 20 20 21 21 18 15 14 11 9 7 6 4 2 1 358 357 356 354 352 351 349
227 231 219 213 208 205 187 178 147 141 98 79 45 24 12 1 1 3 7 7 5 6 9 12 10 10 11 11 8 5 2 2 1 359 357 356 355 352 349 346 344 342 342
229 232 228 222 232 226 204 187 204 173 241 32 17 354 348 336 341 342 346 348 352 349 354 1 1 1 360 358 359 357 357 357 355 353 351 351 350 349 346 342 340 338 337
231 231 225 221 235 229 212 190 187 230 273 263 315 337 330 328 329 326 327 332 336 335 337 346 344 346 345 344 347 350 348 350 351 350 348 347 346 345 342 338 335 333 332
234 234 235 239 232 233 216 199 195 224 234 267 296 323 318 315 320 321 315 316 320 326 329 333 332 331 334 335 336 340 343 344 343 342 341 341 340 339 337 335 333 330 328
240 235 244 246 249 236 227 219 226 243 243 249 288 308 315 326 320 320 315 311 315 316 319 322 325 323 324 327 330 332 334 337 339 340 338 336 336 337 337 335 332 329 326
241 242 250 253 251 255 244 231 232 249 260 268 277 299 310 321 323 321 316 314 312 315 317 318 316 316 318 319 321 324 326 331 335 337 337 336 335 334 333 331 327 325 323
256 243 250 255 260 260 243 243 247 258 267 275 280 293 302 310 317 322 320 320 318 319 324 323 317 315 317 319 321 323 325 328 330 333 334 335 334 332 331 328 327 325 323
257 252 255 262 260 260 253 254 256 264 271 273 279 293 304 312 318 321 317 312 312 316 319 324 322 325 327 328 325 323 324 327 329 329 329 329 329 329 328 328 327 326 325
266 264 270 260 263 260 261 265 269 280 284 288 293 301 309 311 314 317 312 309 305 308 314 318 328 334 335 333 332 333 332 331 328 327 327 327 329 330 329 328 326 325 325
62 340 286 297 281 273 263 265 279 285 294 302 305 305 307 308 312 314 309 308 310 306 308 319 322 330 333 334 332 333 331 330 329 330 330 329 328 329 330 329 328 326 325
68 67 337 308 296 287 285 283 287 290 294 297 304 304 307 311 313 312 314 318 321 322 317 326 324 326 329 330 331 332 331 330 330 329 329 330 330 329 329 329 328 328 325
338 72 301 281 284 288 289 290 291 294 295 296 301 305 309 315 319 323 330 331 327 323 317 320 324 326 328 329 330 332 334 332 331 330 330 328 328 327 327 325 324 324 324
328 346 341 310 303 299 301 301 303 306 307 306 307 313 318 326 324 325 325 324 325 324 322 320 326 327 328 330 331 332 333 333 332 331 329 329 329 330 329 329 328 324 322
310 303 317 320 321 316 319 316 315 321 324 323 325 325 324 327 326 326 329 328 331 334 332 328 326 330 330 333 333 336 337 335 334 334 333 332 331 331 331 330 328 325 323
348 347 342 343 340 340 339 341 334 333 335 335 335 336 336 333 332 332 332 331 329 329 330 331 331 330 333 336 336 335 334 338 336 338 337 339 339 339 336 332 332 331 330
6 7 2 356 357 353 348 352 348 343 339 338 341 336 338 338 335 332 329 328 330 331 331 332 331 332 333 334 335 339 337 340 340 344 344 343 341 339 338 338 336 336 334
17 12 6 2 356 355 354 353 353 350 344 338 340 338 339 339 337 336 337 337 338 335 333 334 334 334 337 339 341 340 340 339 339 350 343 339 340 338 337 336 336 336 336
24 12 4 359 354 351 352 348 345 344 343 340 337 333 332 333 334 335 340 341 339 338 339 339 338 340 341 343 343 342 343 342 338 341 340 338 342 337 338 338 337 338 338
23 16 12 11 6 3 359 354 351 350 349 346 342 338 334 334 334 334 335 337 338 341 342 344 345 346 346 347 347 344 342 341 340 341 346 341 347 347 348 344 342 343 342
27 24 22 16 9 3 359 359 360 356 351 345 340 338 336 333 333 337 340 338 341 344 347 349 349 349 347 345 345 346 345 345 346 347 352 351 350 348 347 344 347 345 345
25 21 13 8 7 5 2 1 359 356 351 347 343 341 339 339 340 340 345 347 342 345 345 345 345 346 347 348 350 353 353 351 351 354 2 349 352 356 355 355 349 343 340